Regional Weather Roundup
Issued by NWS

Home | Current Version | Previous Version | Text Only | Print | Product List | Glossary Off
Versions: 1 2 3 4 5 6 7 8 9 10 11 12 13 14 15 16 17 18 19 20 21 22 23 24 25 26 27 28 29 30 31 32 33 34 35 36 37 38 39 40 41 42 43 44 45 46 47 48 49 50

000
ASUS43 KFSD 272302
RWRSD

WEATHER ROUNDUP FOR SOUTH DAKOTA
NATIONAL WEATHER SERVICE SIOUX FALLS SD
600 PM CDT THU AUG 27 2015

NOTE: "FAIR" INDICATES FEW OR NO CLOUDS BELOW 12,000 FEET WITH NO
SIGNIFICANT WEATHER AND/OR OBSTRUCTIONS TO VISIBILITY.


SDZ001>005-009-010-012>017-280000-
NORTHWEST AND NORTH CENTRAL SOUTH DAKOTA

CITY           SKY/WX    TMP DP  RH WIND       PRES   REMARKS
BUFFALO          N/A     79  63  57 E7        29.88S
FAITH            N/A     80  52  37 SE15      29.96F
MOBRIDGE       CLOUDY    79  69  71 S7        29.94S
$$

SDZ012>016-024>037-041>051-057-063-072>074-280000-
SOUTHWEST AND SOUTH CENTRAL SOUTH DAKOTA

CITY           SKY/WX    TMP DP  RH WIND       PRES   REMARKS
RAPID CTY ARPT PTSUNNY   78  57  48 NE10      30.01S
PIERRE         LGT RAIN  70  67  90 N15       29.92F
CUSTER         PTSUNNY   72  49  44 N5        30.15S
PHILIP         CLOUDY    71  65  81 CALM      29.96R
PINE RIDGE     CLOUDY    70  58  65 E8        30.02R
WINNER         LGT RAIN  76  70  82 E10       29.90F
$$

SDZ004>011-016>023-039-040-280000-
NORTHEAST SOUTH DAKOTA

CITY           SKY/WX    TMP DP  RH WIND       PRES   REMARKS
ABERDEEN       CLOUDY    75  67  76 W3        29.94F
WATERTOWN      CLOUDY    74  68  81 S5        29.97F
BROOKINGS      CLOUDY    73  66  78 SE8       30.01R
$$

SDZ017-020-022-023-036>040-048>070-280000-
SOUTHEAST SOUTH DAKOTA

CITY           SKY/WX    TMP DP  RH WIND       PRES   REMARKS
SIOUX FALLS    TSTM      71  68  90 E14       29.97F FOG
HURON          CLOUDY    77  70  79 E10       29.92S
CHAMBERLAIN    CLOUDY    75  69  80 E9        29.91R
MITCHELL       PTSUNNY   78  67  68 SE16      29.91S
YANKTON        CLOUDY    79  68  69 SE9       29.91R
$$

ABBREVIATIONS USED IN REMARKS
   TC - TEMPERATURE IN CELSIUS
  WCI - WIND CHILL INDEX
   HX - HEAT INDEX
  VSB - VISIBILITY



USA.gov is the U.S. government's official web portal to all federal, state and local government web resources and services.